Cienfuegos, Cuba

4:08 AM CST on December 11, 2019 (GMT -0500)
Jaime Gonzalez

Weather History for MUCF - October, 2019

Change the Weather History Date:

Sunday, October 13, 2019

  Actual Average Record
Temperature  
Mean Temperature 81 °F -  
Max Temperature 89 °F - - ()
Min Temperature 73 °F - - ()
Cooling Degree Days 16    
Growing Degree Days 31 (Base 50)    
Moisture  
Dew Point 75 °F    
Average Humidity 86    
Maximum Humidity 100    
Minimum Humidity 62    
Precipitation  
Precipitation 0.00 in - - ()
Sea Level Pressure  
Sea Level Pressure 29.95 in    
Wind  
Wind Speed 5 mph ()    
Max Wind Speed 9 mph    
Max Gust Speed -    
Visibility 6.1 miles    
Events      
T = Trace of Precipitation, MM = Missing Value Source: Averaged Metar Reports

Daily Weather History Graph

Daily Weather History Graph

Search for Another Location

Airport or City:

Astronomy

Oct. 13, 2019 Rise Set
Actual Time 7:16 AM CDT 6:58 PM CDT
Civil Twilight 6:54 AM CDT 7:20 PM CDT
Nautical Twilight 6:28 AM CDT 7:46 PM CDT
Astronomical Twilight 6:02 AM CDT 8:12 PM CDT
Moon 7:13 PM CDT (10/13) 7:00 AM CDT (10/13)
Length of Visible Light 12h 26m
Length of Day
11h 41m
Full, 100% of the Moon is Illuminated
Oct 13
Full
Oct 13
Full
Oct 21
Last Quarter
Oct 27
New
Nov 4
First Quarter

Hourly Weather History & Observations

Time (CDT) Temp. Heat Index Dew Point Humidity Pressure Visibility Wind Dir Wind Speed Gust Speed Precip Events Conditions
12:58 AM 75.2 °F - 73.4 °F 94% 29.95 in - NNE 5.8 mph - N/A   Unknown
1:59 AM 73.4 °F - 71.6 °F 94% 29.95 in - ENE 6.9 mph - N/A   Unknown
2:58 AM 75.2 °F - 73.4 °F 94% 29.92 in - ENE 8.1 mph - N/A   Unknown
3:59 AM 75.2 °F - 73.4 °F 94% 29.92 in - ENE 5.8 mph - N/A   Unknown
4:59 AM 75.2 °F - 73.4 °F 94% 29.92 in - ENE 4.6 mph - N/A   Unknown
5:59 AM 75.2 °F - 73.4 °F 94% 29.92 in - ENE 6.9 mph - N/A   Unknown
6:59 AM 75.2 °F - 75.2 °F 100% 29.92 in - East 5.8 mph - N/A   Unknown
7:59 AM 77.0 °F - 75.2 °F 94% 29.92 in - ENE 6.9 mph - N/A   Unknown
8:50 AM 80.6 °F 87.1 °F 77.0 °F 89% 29.95 in - SE 4.6 mph - N/A   Clear
9:50 AM 84.2 °F 94.1 °F 77.0 °F 79% 29.98 in 6.2 mi East 4.6 mph - N/A   Partly Cloudy
10:50 AM 86.0 °F 96.9 °F 77.0 °F 74% 29.98 in 6.2 mi NE 4.6 mph - N/A   Partly Cloudy
11:50 AM 86.0 °F 95.1 °F 75.2 °F 70% 29.98 in 6.2 mi ENE 8.1 mph - N/A   Scattered Clouds
1:52 PM 89.6 °F 99.8 °F 75.2 °F 62% 29.95 in 6.2 mi East 5.8 mph - N/A   Partly Cloudy
2:50 PM 86.0 °F 96.9 °F 77.0 °F 74% 29.92 in 5.6 mi SSW 9.2 mph - N/A   Scattered Clouds
3:50 PM 86.0 °F 96.9 °F 77.0 °F 74% 29.92 in 6.2 mi South 6.9 mph - N/A   Scattered Clouds
4:59 PM 86.0 °F 96.9 °F 77.0 °F 74% 29.92 in - East 4.6 mph - N/A   Unknown
5:58 PM 80.6 °F 86.2 °F 75.2 °F 84% 29.92 in - East 3.5 mph - N/A   Unknown
6:58 PM 78.8 °F - 73.4 °F 83% 29.95 in - NE 5.8 mph - N/A   Unknown
7:58 PM 78.8 °F - 75.2 °F 89% 29.95 in - ENE 5.8 mph - N/A   Unknown
8:58 PM 77.0 °F - 75.2 °F 94% 29.95 in - ENE 5.8 mph - N/A   Unknown
9:58 PM 77.0 °F - 75.2 °F 94% 29.98 in - ENE 8.1 mph - N/A   Unknown
10:58 PM 77.0 °F - 75.2 °F 94% 30.01 in - East 5.8 mph - N/A   Unknown
11:58 PM 77.0 °F - 75.2 °F 94% 30.01 in - East 5.8 mph - N/A   Unknown